COSMOS 2251 DEB, 34303

Orbit data source: Space-Track

COSMOS 2251 DEB, 34303 is space debris in LEO originally from a launch on Wed, 16 Jun 1993 UTC launched from the Plesetsk Missile And Space Complex (PKMTR). The debris from Iridium 33, an American commercial communications satellite, has been tracked extensively since its accidental collision with the defunct Russian satellite Cosmos 2251 in 2009. This event, occurring at high speed in low Earth orbit (LEO), generated thousands of pieces of space debris, significantly increasing the risk of further collisions. The Iridium 33 debris cloud has impacted space traffic management and orbital debris mitigation strategies, making it a subject of ongoing study in space situational awareness.

Loading next visibility...
Identifier
34303, 1993-036MZ
Orbit
LEO
Country
Flag of CISCIS
Related business
Manufacturer
Unknown
Mission
Spacecraft
Bus & Motor
Unknown
Mass
Unknown
Launch date (UTC)
1993-06-16 (32 years ago)
Launch vehicle
Unknown
Launch site
Plesetsk Missile And Space Complex (PKMTR)
Object type
Payload
Rocket body
Debris
Shape & HBR
Unknown shape, 0.1 m
Radar Cross Section
Small (<0.1 m²)

Expand to show TLE details & history
Last TLE update: 6 hours ago

TLE from 6 hours ago
0 COSMOS 2251 DEB
1 34303U 93036MZ  25299.96479346  .00009727  00000-0  20467-2 0  9995
2 34303  74.0073  16.6573 0137947 167.0827   8.6736 14.53775135872824
Epoch: 2025-10-26T23:09Z
TLE epoch observation values (Epoch: 2025-10-26T23:09:18.154Z)
Latitude
3.75753°
Longitude
172.68556°
Altitude
618.876 km
Speed
7.601 km/s
True Right ascension
13h 02m 20s
True Declination
3° 44' 05"
Sunlit
Object was in daylight at epoch
Visualization orbit readout
Latitude
Unknown
Longitude
Unknown
Altitude
Unknown
Speed
Unknown
Apparent Right ascension
Unknown
Apparent Declination
Unknown
Sunlit
N/A
Visualization observer readout
Local Sidereal Time
00:46:41
Azimuth
Unknown
Elevation
Unknown
Doppler factor
Unknown
Orbital elements
Apogee altitude
808.743 km
Perigee altitude
613.16 km
Semi-major axis
7,089.088 km
Eccentricity
0.01379
Inclination
74.0073°
RAAN
16.6573°
Arg. of periapsis
167.0827°
True anomaly
8.91612°
Mean anomaly
8.6736°
Eccentric anomaly
8.79444°
Mean motion
3.63628 °/min
Orbital period
99 mins
BSTAR
0.0020467
Loading maneuver chart data...
Computing Atmospheric mass density...

Documentation

Showing up to 5 results
|